| time (UTC) | temp F | wind direction | speed MPH | gust MPH | rain 1hr in | rain 24hr in | rain mn in | humidity % | barometer mb |
| 20260503235327 | 86 | 252 | 17.0 | 30.0 | 0.00 | 0.00 | 0.00 | 13 | 1019.0 |
| 20260503234401 | 87 | 206 | 14.0 | 29.0 | 0.00 | 0.00 | 0.00 | 13 | 1018.6 |
| 20260503233333 | 88 | 221 | 12.0 | 23.0 | 0.00 | 0.00 | 0.00 | 13 | 1018.7 |
| 20260503232321 | 88 | 237 | 16.0 | 28.0 | 0.00 | 0.00 | 0.00 | 13 | 1018.9 |
| 20260503231332 | 87 | 275 | 14.0 | 25.0 | 0.00 | 0.00 | 0.00 | 14 | 1018.8 |
| 20260503230321 | 87 | 230 | 9.0 | 19.0 | 0.00 | 0.00 | 0.00 | 13 | 1019.0 |
| 20260503225328 | 87 | 220 | 12.0 | 26.0 | 0.00 | 0.00 | 0.00 | 13 | 1019.1 |
| 20260503224354 | 87 | 250 | 12.0 | 22.0 | 0.00 | 0.00 | 0.00 | 13 | 1019.2 |
| 20260503223349 | 87 | 234 | 12.0 | 16.0 | 0.00 | 0.00 | 0.00 | 14 | 1019.3 |
| 20260503222317 | 87 | 248 | 12.0 | 18.0 | 0.00 | 0.00 | 0.00 | 14 | 1019.3 |
| 20260503221321 | 87 | 256 | 5.0 | 13.0 | 0.00 | 0.00 | 0.00 | 15 | 1019.3 |
| 20260503220327 | 86 | 254 | 11.0 | 16.0 | 0.00 | 0.00 | 0.00 | 16 | 1019.4 |
| 20260503215334 | 86 | 233 | 10.0 | 16.0 | 0.00 | 0.00 | 0.00 | 17 | 1019.5 |
| 20260503214322 | 86 | 240 | 4.0 | 16.0 | 0.00 | 0.00 | 0.00 | 19 | 1019.6 |
| 20260503213336 | 86 | 248 | 7.0 | 16.0 | 0.00 | 0.00 | 0.00 | 20 | 1019.9 |
| 20260503212320 | 86 | 229 | 7.0 | 12.0 | 0.00 | 0.00 | 0.00 | 21 | 1020.2 |
| 20260503211324 | 85 | 266 | 7.0 | 14.0 | 0.00 | 0.00 | 0.00 | 22 | 1020.2 |
| 20260503210331 | 85 | 227 | 10.0 | 18.0 | 0.00 | 0.00 | 0.00 | 22 | 1020.3 |
| 20260503205335 | 85 | 190 | 7.0 | 16.0 | 0.00 | 0.00 | 0.00 | 22 | 1020.6 |
| 20260503204319 | 83 | 138 | 10.0 | 17.0 | 0.00 | 0.00 | 0.00 | 23 | 1020.8 |
| 20260503203358 | 83 | 132 | 9.0 | 14.0 | 0.00 | 0.00 | 0.00 | 23 | 1020.9 |
| 20260503202324 | 84 | 133 | 8.0 | 15.0 | 0.00 | 0.00 | 0.00 | 23 | 1020.9 |
| 20260503201332 | 83 | 159 | 2.0 | 11.0 | 0.00 | 0.00 | 0.00 | 23 | 1021.1 |
| 20260503200342 | 82 | 166 | 9.0 | 14.0 | 0.00 | 0.00 | 0.00 | 24 | 1021.2 |
| 20260503195324 | 83 | 171 | 7.0 | 21.0 | 0.00 | 0.00 | 0.00 | 23 | 1021.4 |
| 20260503194332 | 83 | 140 | 11.0 | 21.0 | 0.00 | 0.00 | 0.00 | 23 | 1021.4 |
| 20260503193325 | 83 | 193 | 10.0 | 20.0 | 0.00 | 0.00 | 0.00 | 23 | 1021.5 |
| 20260503192333 | 83 | 194 | 10.0 | 20.0 | 0.00 | 0.00 | 0.00 | 22 | 1021.7 |
| 20260503191319 | 82 | 126 | 11.0 | 19.0 | 0.00 | 0.00 | 0.00 | 24 | 1021.9 |
| 20260503190346 | 82 | 182 | 12.0 | 18.0 | 0.00 | 0.00 | 0.00 | 24 | 1022.0 |
| 20260503185334 | 81 | 148 | 9.0 | 16.0 | 0.00 | 0.00 | 0.00 | 27 | 1022.2 |
| 20260503184321 | 80 | 136 | 9.0 | 17.0 | 0.00 | 0.00 | 0.00 | 27 | 1022.6 |
| 20260503183401 | 80 | 158 | 8.0 | 18.0 | 0.00 | 0.00 | 0.00 | 28 | 1022.7 |
| 20260503182330 | 80 | 148 | 11.0 | 15.0 | 0.00 | 0.00 | 0.00 | 27 | 1022.8 |
| 20260503181320 | 80 | 131 | 9.0 | 18.0 | 0.00 | 0.00 | 0.00 | 28 | 1022.9 |
| 20260503180330 | 79 | 139 | 10.0 | 17.0 | 0.00 | 0.00 | 0.00 | 28 | 1023.0 |
| 20260503175337 | 79 | 110 | 8.0 | 13.0 | 0.00 | 0.00 | 0.00 | 29 | 1023.1 |
| 20260503174329 | 79 | 183 | 7.0 | 17.0 | 0.00 | 0.00 | 0.00 | 28 | 1023.1 |
| 20260503173324 | 79 | 154 | 7.0 | 15.0 | 0.00 | 0.00 | 0.00 | 28 | 1023.2 |
| 20260503172327 | 79 | 142 | 9.0 | 16.0 | 0.00 | 0.00 | 0.00 | 28 | 1023.2 |
| 20260503171331 | 79 | 169 | 9.0 | 15.0 | 0.00 | 0.00 | 0.00 | 29 | 1023.5 |
| 20260503170317 | 79 | 187 | 8.0 | 13.0 | 0.00 | 0.00 | 0.00 | 29 | 1023.5 |
| 20260503150318 | 74 | 350 | 0.0 | 2.0 | 0.00 | 0.00 | 0.00 | 32 | 1023.6 |
| 20260503131326 | 68 | 150 | 1.0 | 3.0 | 0.00 | 0.00 | 0.00 | 40 | 1022.6 |
| 20260503130332 | 68 | 150 | 1.0 | 3.0 | 0.00 | 0.00 | 0.00 | 40 | 1022.5 |
| 20260503110344 | 70 | 116 | 0.0 | 3.0 | 0.00 | 0.00 | 0.00 | 36 | 1022.4 |
| 20260503090323 | 70 | 286 | 2.0 | 4.0 | 0.00 | 0.00 | 0.00 | 35 | 1022.4 |
| 20260503081323 | 71 | 29 | 4.0 | 9.0 | 0.00 | 0.00 | 0.00 | 33 | 1022.8 |
| 20260503080330 | 72 | 61 | 6.0 | 8.0 | 0.00 | 0.00 | 0.00 | 32 | 1022.9 |
| 20260503072331 | 72 | 288 | 3.0 | 4.0 | 0.00 | 0.00 | 0.00 | 31 | 1023.0 |
| 20260503071322 | 72 | 285 | 3.0 | 5.0 | 0.00 | 0.00 | 0.00 | 31 | 1022.9 |
| 20260503070330 | 73 | 312 | 5.0 | 6.0 | 0.00 | 0.00 | 0.00 | 30 | 1023.0 |
| 20260503060323 | 74 | 5 | 3.0 | 4.0 | 0.00 | 0.00 | 0.00 | 29 | 1022.2 |
| 20260503054327 | 75 | 98 | 2.0 | 7.0 | 0.00 | 0.00 | 0.00 | 28 | 1022.0 |
| 20260503053324 | 75 | 39 | 1.0 | 6.0 | 0.00 | 0.00 | 0.00 | 29 | 1022.0 |
| 20260503052332 | 75 | 51 | 6.0 | 9.0 | 0.00 | 0.00 | 0.00 | 28 | 1022.2 |
| 20260503051320 | 76 | 58 | 4.0 | 10.0 | 0.00 | 0.00 | 0.00 | 28 | 1022.2 |
| 20260503050350 | 76 | 59 | 5.0 | 11.0 | 0.00 | 0.00 | 0.00 | 28 | 1022.0 |
| 20260503045321 | 76 | 68 | 3.0 | 7.0 | 0.00 | 0.00 | 0.00 | 27 | 1022.0 |
| 20260503044334 | 76 | 49 | 4.0 | 11.0 | 0.00 | 0.00 | 0.00 | 28 | 1021.9 |
| 20260503043354 | 76 | 59 | 4.0 | 11.0 | 0.00 | 0.00 | 0.00 | 27 | 1021.9 |
| 20260503042322 | 77 | 49 | 3.0 | 5.0 | 0.00 | 0.00 | 0.00 | 26 | 1021.6 |
| 20260503041335 | 77 | 14 | 2.0 | 10.0 | 0.00 | 0.00 | 0.00 | 26 | 1021.5 |
| 20260503040327 | 77 | 71 | 5.0 | 9.0 | 0.00 | 0.00 | 0.00 | 26 | 1021.2 |
| 20260503035336 | 76 | 292 | 1.0 | 4.0 | 0.00 | 0.00 | 0.00 | 26 | 1021.2 |
| 20260503034344 | 77 | 261 | 1.0 | 8.0 | 0.00 | 0.00 | 0.00 | 25 | 1021.3 |
| 20260503033317 | 79 | 90 | 7.0 | 12.0 | 0.00 | 0.00 | 0.00 | 24 | 1021.2 |
| 20260503032329 | 79 | 85 | 5.0 | 15.0 | 0.00 | 0.00 | 0.00 | 24 | 1020.9 |
| 20260503031320 | 79 | 111 | 7.0 | 11.0 | 0.00 | 0.00 | 0.00 | 24 | 1020.9 |
| 20260503030356 | 79 | 69 | 8.0 | 14.0 | 0.00 | 0.00 | 0.00 | 24 | 1020.8 |
| 20260503025349 | 79 | 121 | 8.0 | 14.0 | 0.00 | 0.00 | 0.00 | 24 | 1020.8 |
| 20260503024337 | 79 | 127 | 9.0 | 15.0 | 0.00 | 0.00 | 0.00 | 24 | 1020.8 |
| 20260503023326 | 79 | 128 | 10.0 | 13.0 | 0.00 | 0.00 | 0.00 | 23 | 1020.5 |
| 20260503022332 | 80 | 101 | 9.0 | 14.0 | 0.00 | 0.00 | 0.00 | 23 | 1020.7 |
| 20260503021356 | 80 | 98 | 10.0 | 14.0 | 0.00 | 0.00 | 0.00 | 22 | 1020.7 |
| 20260503020342 | 80 | 119 | 9.0 | 17.0 | 0.00 | 0.00 | 0.00 | 22 | 1020.7 |
| 20260503015319 | 81 | 134 | 11.0 | 15.0 | 0.00 | 0.00 | 0.00 | 22 | 1020.8 |
| 20260503014343 | 81 | 121 | 8.0 | 12.0 | 0.00 | 0.00 | 0.00 | 22 | 1020.9 |
| 20260503013331 | 81 | 126 | 10.0 | 13.0 | 0.00 | 0.00 | 0.00 | 22 | 1020.7 |
| 20260503012316 | 82 | 172 | 4.0 | 9.0 | 0.00 | 0.00 | 0.00 | 20 | 1020.8 |
| 20260503011326 | 82 | 171 | 2.0 | 4.0 | 0.00 | 0.00 | 0.00 | 20 | 1020.8 |
| 20260503010336 | 82 | 118 | 2.0 | 6.0 | 0.00 | 0.00 | 0.00 | 20 | 1021.0 |
| 20260503005325 | 82 | 130 | 6.0 | 9.0 | 0.00 | 0.00 | 0.00 | 19 | 1020.8 |
| 20260503004353 | 83 | 140 | 7.0 | 10.0 | 0.00 | 0.00 | 0.00 | 20 | 1020.7 |
| 20260503003324 | 83 | 196 | 4.0 | 7.0 | 0.00 | 0.00 | 0.00 | 19 | 1020.7 |
| 20260503002332 | 83 | 198 | 7.0 | 10.0 | 0.00 | 0.00 | 0.00 | 19 | 1020.6 |
| 20260503001318 | 84 | 190 | 5.0 | 9.0 | 0.00 | 0.00 | 0.00 | 19 | 1020.7 |
| 20260503000355 | 84 | 229 | 4.0 | 9.0 | 0.00 | 0.00 | 0.00 | 19 | 1020.6 |